Location: *
(50.3194°N, 7.1067°E)
Time: 11:41:00
(UTC+00:00)

MetOp-A - Pass Details

Date: 22 September 2019
Orbit: 820 x 821 km, 98.6° (Epoch: 17 October)

Event Time Altitude Azimuth Distance (km) Brightness Sun altitude
Exits shadow 19:55:15 37° 174° (S) 1,259 4.8 -22.9°
Maximum altitude 19:57:28 79° 255° (WSW) 842 4.2 -23.2°
Drops below altitude 10° 20:02:52 10° 343° (NNW) 2,430 7.2 -23.9°
Sets 20:05:14 0° 345° (NNW) 3,367 8.0 -24.2°
